Regional Weather Roundup
Issued by NWS Cleveland, OH

Home | Current Version | Previous Version | Graphics & Text | Print | Product List | Glossary On
Versions: 1 2 3 4 5 6 7 8 9 10 11 12 13 14 15 16 17 18 19 20 21 22 23 24 25 26 27 28 29 30 31 32 33 34 35 36 37 38 39 40 41 42 43 44 45 46 47 48 49 50
000
ASUS41 KCLE 220210
RWRCLE
OHIO REGIONAL WEATHER ROUNDUP
NATIONAL WEATHER SERVICE WILMINGTON, OH
900 PM EST SUN DEC 21 2014

NOTE: "FAIR" INDICATES FEW OR NO CLOUDS BELOW 12,000 FEET WITH NO
SIGNIFICANT WEATHER AND/OR OBSTRUCTIONS TO VISIBILITY.

OHZ001>008-015>018-024>027-034-035-043-044-220300-
   NORTHWEST OHIO

CITY           SKY/WX    TMP DP  RH WIND       PRES   REMARKS
DEFIANCE       CLEAR     29  24  82 E7        30.18F WCI  22
FINDLAY        PTCLDY    29  23  78 E7        30.18S WCI  22
TOLEDO EXPRESS CLEAR     26  23  88 E5        30.20F WCI  20
TOLEDO METCALF CLEAR     29  22  75 E5        30.22F WCI  24
LIMA           PTCLDY    29  23  78 E7        30.16F HAZE    WCI  22
$$

OHZ009>014-019>023-028>033-038-089-220300-
   NORTHEAST OHIO

CITY           SKY/WX    TMP DP  RH WIND       PRES   REMARKS
CLE-HOPKINS    MOCLDY    29  21  72 SE7       30.25F WCI  22
CLE-LAKEFRONT  CLOUDY    32  21  64 E8        30.23F WCI  25
CUY CO. ARPT   CLOUDY    32  23  69 SE7       30.24F WCI  26
LORAIN-ELYRIA  FAIR      26  21  81 E5        30.22F WCI  20
ASHTABULA      CLOUDY    30  21  69 SE6       30.25F WCI  24
AKRON-CANTON   PTCLDY    27  20  75 E7        30.20F WCI  19
WOOSTER        PTCLDY    24  20  84 E6        30.20F WCI  17
MANSFIELD      MOCLDY    25  21  85 E6        30.18S WCI  18
YOUNGSTOWN     CLOUDY    29  22  75 E5        30.22F WCI  24
$$

OHZ042-051>053-060>062-070>072-077>081-220300-
  SOUTHWEST OHIO

CITY           SKY/WX    TMP DP  RH WIND       PRES   REMARKS
CINC-COVINGTON PTCLDY    29  23  78 E6        30.14F WCI  23
CINC-LUNKEN    CLEAR     26  24  92 NE3       30.19F
HAMILTON       CLEAR     27  23  85 E5        30.18F WCI  22
DAYTON         PTCLDY    30  25  81 E8        30.17S WCI  22
WRIGHT-PAT AFB CLEAR     28  24  83 NE2       30.17F
DAYTON GENERAL CLEAR     30  25  81 E3        30.16R
WILMINGTON     CLEAR     28  23  81 E6        30.16R WCI  22
$$

OHZ036-037-039>041-045>050-054>059-063>069-073>076-082>088-220300-
  CENTRAL AND SOUTHEAST OHIO

CITY           SKY/WX    TMP DP  RH WIND       PRES   REMARKS
COLUMBUS       MOCLDY    29  22  75 E5        30.19S WCI  24
OSU AIRPORT    CLEAR     29  22  75 E3        30.19S
BOLTON FIELD   CLEAR     28  25  87 CALM      30.19S
RICKENBACK AFB CLEAR     26  23  85 NE7       30.19R WCI  19
NEWARK         CLEAR     29  22  75 NE3       30.19S
MARION         PTCLDY    26  20  77 SE6       30.19S WCI  19
LANCASTER      CLEAR     31  23  72 E3        30.20S
ZANESVILLE     CLEAR     27  22  81 NE3       30.19F
NEW PHILLY     CLEAR     25  21  85 CALM      30.21F
$$


USA.gov is the U.S. government's official web portal to all federal, state and local government web resources and services.